Temperature
13 13 13 13 13 13 13 12 12 12 12 12 12 12 12 12 12 12 12 12 12 12 12 12 12 12 12 12 12 12 12 11 11 11 11 11 11 11 11 11 11 11 10
13 13 13 13 12 12 12 12 12 12 12 12 12 12 12 12 12 12 11 11 11 12 12 12 12 11 11 11 11 11 11 11 11 11 11 11 11 11 11 10 10 10 10
13 13 12 12 12 12 12 12 12 11 11 11 11 11 11 11 11 11 11 11 11 11 11 11 11 11 11 11 11 11 11 11 11 11 11 11 11 10 10 10 10 10 10
12 12 12 12 12 12 12 12 11 11 11 11 11 11 11 11 11 11 11 11 11 11 11 11 11 11 11 11 11 11 11 11 11 11 10 10 10 10 10 10 10 10 10
12 12 12 12 12 12 11 11 11 11 11 10 10 10 10 10 10 10 11 11 11 11 11 11 11 11 10 10 10 10 10 10 10 10 10 10 10 10 10 9 9 9 9
12 12 12 12 11 11 11 11 11 11 11 10 10 10 10 10 10 10 10 10 10 10 10 10 10 10 10 10 10 10 10 10 10 10 10 9 9 9 9 9 9 9 9
11 11 11 11 11 11 11 11 11 10 10 10 10 10 9 9 9 9 9 10 10 9 10 10 10 10 10 10 10 10 10 9 9 9 9 9 9 9 9 8 8 8 8
11 11 11 11 11 11 11 11 10 10 10 10 10 9 9 8 9 9 9 9 9 9 9 9 9 9 9 9 9 9 9 9 9 9 9 9 8 8 8 8 8 8 8
10 11 11 11 11 11 11 10 10 10 10 10 10 10 9 9 8 8 8 8 9 9 9 9 9 9 9 9 9 9 9 9 9 8 8 8 8 8 8 8 7 7 8
10 10 10 10 10 10 10 10 10 10 10 10 10 10 10 10 9 8 7 8 8 8 8 8 8 8 8 8 8 8 8 8 8 8 8 8 7 7 7 7 7 7 7
9 10 10 10 10 10 10 10 10 10 9 10 10 10 9 9 9 9 8 8 8 8 8 8 8 8 8 8 8 8 8 8 8 8 7 7 7 7 7 7 7 7 7
9 9 9 10 10 10 10 10 10 9 9 9 9 9 9 9 9 9 9 8 7 7 7 7 7 7 7 7 7 7 7 7 7 7 7 7 7 7 7 6 6 6 6
8 9 9 9 9 9 9 9 9 9 9 9 9 9 9 9 9 9 9 8 7 7 7 7 7 7 7 7 7 7 7 7 7 7 7 7 6 6 6 6 6 6 6
8 8 8 8 9 9 9 9 9 9 8 8 8 8 8 8 8 8 8 8 7 7 7 7 7 7 7 7 7 7 7 7 7 6 6 6 6 6 6 6 6 6 5
7 7 8 8 8 8 8 8 8 8 8 8 8 8 8 8 8 8 8 8 8 7 6 6 6 6 6 6 6 6 6 6 6 6 6 6 6 6 6 5 5 5 5
7 7 7 7 7 7 7 8 8 8 8 8 7 7 7 7 7 7 7 7 7 7 7 7 6 6 6 6 6 6 6 6 6 6 5 5 5 5 5 5 5 5 5
6 6 7 7 7 7 7 7 7 7 7 7 7 7 7 7 7 7 7 7 7 7 6 6 6 6 6 6 5 5 5 5 5 5 5 5 5 5 5 5 5 5 4
6 6 6 6 6 6 6 7 7 7 7 7 7 7 6 6 7 6 6 6 6 6 6 6 6 6 5 5 5 5 5 5 5 5 5 4 4 4 4 4 4 4 4
5 5 5 5 6 6 6 6 6 6 6 6 6 6 6 6 6 6 6 6 6 6 5 5 5 5 5 5 5 4 4 4 4 4 4 4 4 4 4 4 4 3 3
5 5 5 5 5 5 5 5 5 5 5 5 5 6 6 5 6 6 5 5 5 5 5 5 5 5 4 4 4 4 4 4 4 4 4 3 3 3 3 3 3 3 3
4 4 4 4 4 5 5 5 5 5 5 5 5 5 5 5 5 5 5 5 5 5 5 4 4 4 4 4 4 4 3 3 3 3 3 3 3 3 3 3 3 3 2
4 4 4 4 4 4 4 4 4 4 4 4 4 4 4 4 5 4 4 4 4 4 4 4 4 4 4 3 3 3 3 3 3 3 3 3 2 2 2 2 2 2 2
3 3 3 3 3 4 4 4 4 4 4 4 4 4 4 4 4 4 4 4 4 3 3 3 3 3 3 3 3 3 2 2 2 2 2 2 2 2 2 2 2 2 2
2 3 3 3 3 3 3 3 3 3 3 3 3 3 3 4 3 3 3 3 3 3 3 3 3 3 3 2 2 2 2 2 2 2 1 1 2 2 2 2 2 1 1
2 2 2 2 2 2 2 3 3 3 3 3 3 3 3 3 3 3 2 2 2 2 2 2 2 2 2 2 2 1 1 1 1 1 1 1 1 1 1 2 1 1 1
1 1 1 1 2 2 2 2 2 2 2 2 2 2 2 2 2 2 2 2 2 2 2 2 2 1 1 1 1 1 1 0 0 0 1 0 0 -0 0 1 1 1 1
Wind_Speed
6 6 6 7 8 8 8 7 6 7 6 7 8 8 8 8 8 8 8 10 9 9 8 9 9 9 9 9 9 9 8 8 7 7 7 7 7 7 7 7 7 7 7
8 7 6 6 7 8 8 8 7 6 5 7 7 8 8 8 9 9 9 9 10 10 9 9 9 9 9 9 9 8 8 8 7 7 7 7 7 7 7 7 6 6 6
10 8 6 5 7 9 9 8 7 7 6 6 6 7 8 8 9 9 8 8 9 10 9 8 8 8 8 9 9 9 9 8 8 7 7 7 7 6 6 6 6 6 6
11 9 6 5 8 9 8 5 5 5 5 5 5 5 7 8 8 9 9 9 9 8 9 9 8 8 7 7 7 8 8 7 7 6 6 6 6 6 6 5 5 5 5
11 9 6 7 10 8 6 5 4 5 6 6 5 5 5 6 7 8 8 8 9 8 8 8 9 9 8 7 7 7 7 6 6 6 6 5 5 5 5 5 5 5 5
10 9 7 8 9 6 5 5 6 5 5 6 7 7 5 5 6 6 6 7 7 7 8 8 8 8 9 8 7 6 6 6 6 6 5 5 4 4 4 4 4 5 5
10 9 6 6 7 6 7 7 6 7 5 5 5 5 5 5 5 4 5 5 6 6 7 8 7 7 7 8 8 7 6 6 5 6 5 5 5 4 5 6 5 5 6
8 8 8 6 6 6 7 7 7 5 3 3 4 4 2 2 3 3 3 3 4 5 6 6 6 6 7 7 7 7 7 6 5 5 5 5 4 5 5 5 5 5 5
7 8 8 8 6 6 7 7 7 5 5 2 2 4 4 3 1 2 2 2 2 3 3 4 6 6 6 6 5 6 6 5 5 4 4 5 4 4 3 4 4 5 4
5 7 8 8 7 6 7 7 6 4 7 5 2 1 2 4 4 2 1 1 2 2 2 3 4 5 5 5 4 4 4 4 4 4 4 4 4 4 3 3 3 4 4
3 5 7 7 7 6 7 7 6 6 5 5 3 2 3 3 3 3 2 1 1 1 1 2 3 4 4 4 3 3 3 3 3 4 4 4 4 4 4 3 3 3 4
2 4 5 6 6 6 7 7 6 7 5 4 3 3 3 3 2 3 2 2 1 1 1 1 2 2 2 2 2 1 1 2 2 3 4 4 4 3 4 3 3 3 4
3 4 4 4 5 6 7 7 6 6 6 6 5 3 3 2 3 3 3 2 1 1 0 0 0 1 2 2 1 1 0 1 2 3 3 3 3 3 3 3 3 3 4
4 5 4 5 5 6 7 7 5 5 5 5 5 4 3 2 3 3 3 4 2 0 1 2 1 1 2 2 2 1 1 1 1 2 3 3 4 3 3 3 3 4 4
3 5 5 5 5 6 7 7 5 5 5 5 5 4 3 2 2 2 3 4 4 3 3 3 2 2 3 3 3 2 2 2 2 2 3 3 4 4 4 4 4 4 4
4 5 6 6 5 5 6 6 6 6 6 5 4 5 3 2 3 2 3 2 2 3 3 3 3 2 2 3 3 3 3 3 3 3 3 4 4 5 5 5 4 4 5
4 6 6 6 6 5 6 5 5 6 6 5 4 5 4 3 3 3 3 2 2 2 2 2 1 1 2 2 2 3 3 3 4 5 5 5 5 5 5 6 5 6 6
5 6 6 6 6 5 5 6 6 6 7 6 6 5 4 3 4 3 3 3 3 2 3 2 1 1 2 2 2 2 3 4 4 5 6 6 6 6 6 7 7 7 7
5 6 6 7 6 6 6 6 6 6 6 6 6 6 5 5 4 3 4 3 3 2 2 3 2 1 1 1 1 1 2 3 5 5 6 6 7 7 7 7 8 8 8
5 6 6 6 6 6 6 6 6 5 5 5 5 5 5 5 5 5 4 4 4 3 3 2 1 1 1 1 1 1 2 2 3 4 5 6 6 7 8 8 9 9 9
5 6 6 6 6 6 6 7 6 6 5 5 4 4 4 5 5 5 4 5 5 4 3 3 2 1 1 1 2 2 2 2 3 2 3 4 5 6 7 8 9 9 9
4 5 6 6 6 5 7 8 7 6 5 5 4 3 3 4 5 5 5 6 6 5 5 4 3 3 4 3 2 2 2 1 3 2 2 4 3 4 7 8 8 9 9
4 4 5 5 6 6 8 8 8 6 6 5 5 4 3 3 4 3 3 4 4 5 6 5 5 5 5 5 4 3 3 3 4 3 1 4 2 4 7 8 9 9 10
4 4 5 5 5 5 8 8 8 6 5 5 5 5 5 4 4 4 3 2 2 3 4 4 5 5 4 4 5 4 4 2 2 2 2 3 3 4 5 8 9 9 10
4 4 5 5 5 5 7 8 7 5 5 5 4 4 5 4 5 5 4 3 2 2 2 4 5 4 4 5 5 2 2 1 3 3 2 2 3 3 4 5 7 8 9
4 4 4 4 5 5 7 7 7 5 5 4 3 4 5 5 5 5 4 4 4 3 2 1 1 1 1 2 4 4 4 3 2 3 2 2 2 2 3 3 4 7 8
Wind_Direction
146 143 139 137 132 132 131 127 122 116 111 111 111 108 105 105 104 101 96 92 97 104 111 116 117 113 111 109 108 107 103 100 95 91 86 77 72 68 68 70 69 69 66
148 147 144 140 139 141 139 135 130 120 110 109 106 107 108 108 103 100 97 92 90 93 97 103 108 111 105 102 102 102 100 97 90 86 84 79 73 68 62 61 60 62 62
151 149 147 144 145 142 135 128 118 111 104 98 92 96 100 98 99 96 95 92 89 88 91 94 99 102 104 101 100 97 94 90 85 81 78 80 75 68 62 59 58 58 59
155 150 149 151 148 140 133 128 125 111 103 97 90 80 85 89 87 89 89 87 86 84 84 84 89 92 95 97 98 96 93 86 81 81 84 84 76 69 64 61 58 59 57
153 149 151 151 147 139 135 138 126 119 114 104 94 77 69 73 79 86 85 84 83 83 83 81 80 80 80 83 88 92 90 83 77 79 86 87 80 73 69 62 61 61 58
150 146 146 148 146 142 139 137 127 115 117 114 98 77 61 58 68 73 80 81 82 83 84 82 79 75 72 69 71 81 83 77 72 71 71 75 81 78 75 65 64 57 50
148 145 144 146 147 149 148 141 132 125 116 117 102 83 52 49 56 53 64 73 74 79 86 84 82 80 76 69 67 70 69 66 64 63 62 61 61 71 68 63 59 54 48
151 151 147 152 149 142 140 141 138 133 132 135 128 121 105 42 23 30 37 59 63 76 79 85 86 84 83 81 72 69 64 59 57 56 52 52 55 68 65 52 51 49 46
152 151 153 151 151 151 155 153 153 141 153 146 128 138 148 172 161 7 24 41 55 62 71 83 86 88 87 84 75 66 60 51 46 42 41 38 44 49 49 49 51 38 28
147 151 153 154 156 155 159 165 160 150 156 159 139 86 118 138 146 143 353 9 39 62 62 77 91 94 93 88 76 67 63 50 37 32 32 24 19 21 18 34 37 25 15
151 152 154 160 161 161 161 161 160 156 160 162 157 136 96 83 98 136 166 230 4 8 47 78 96 102 105 97 85 73 60 38 25 22 19 12 7 360 355 4 14 8 358
172 159 155 160 163 162 166 166 162 162 162 154 152 147 145 143 150 135 148 174 198 288 8 68 94 119 131 124 117 97 73 21 357 357 0 355 355 354 351 349 354 353 346
185 185 166 162 163 163 162 160 159 164 166 161 160 159 150 148 143 136 135 146 166 259 257 311 194 165 167 166 174 193 204 320 327 336 341 348 346 343 340 336 342 344 340
190 180 168 165 160 160 160 158 157 161 160 161 162 157 149 149 144 144 149 146 142 251 261 247 291 223 212 199 206 202 222 246 284 313 324 334 335 326 321 322 327 333 335
182 173 169 164 159 158 161 161 163 164 161 164 165 160 154 157 148 142 142 151 155 182 225 232 239 252 230 213 217 199 220 247 273 294 307 317 320 313 303 302 307 312 319
186 173 167 164 161 159 158 161 161 161 158 165 164 160 159 158 148 141 148 148 149 163 202 221 227 241 222 221 231 226 237 259 262 274 286 293 301 302 297 296 299 305 308
187 179 170 167 165 165 163 162 166 163 164 164 162 165 171 162 158 157 152 149 145 144 182 236 240 238 215 222 237 240 248 257 263 267 273 281 283 286 291 293 291 296 300
192 185 172 169 168 167 165 166 171 171 170 172 173 169 174 167 162 163 163 169 173 168 169 195 236 239 243 234 230 246 261 264 270 269 271 280 279 280 284 288 286 288 290
190 185 175 173 173 174 171 173 173 174 174 175 175 177 179 168 175 175 175 174 173 165 153 169 208 230 256 261 264 282 279 277 277 275 276 283 283 282 284 286 285 286 287
188 186 182 177 177 175 172 172 169 170 169 171 176 179 180 182 185 184 183 181 170 161 151 155 180 217 240 255 201 252 284 279 285 279 275 284 290 290 286 286 287 287 290
189 184 178 176 175 176 178 175 173 170 169 170 173 176 179 183 186 183 182 182 174 174 171 178 192 211 223 223 230 231 259 286 288 276 282 282 286 290 290 290 289 288 288
184 174 176 175 175 182 175 172 169 169 172 175 179 181 180 183 183 179 182 180 178 181 191 198 210 218 230 228 220 222 236 271 279 272 260 282 275 276 282 284 285 287 287
179 173 175 175 177 179 172 171 170 171 176 185 187 185 186 187 171 176 180 177 191 203 203 198 209 221 222 215 201 218 229 238 251 266 268 274 276 274 283 285 286 287 288
179 179 178 178 178 179 171 171 171 173 178 186 190 191 192 189 185 178 173 182 204 221 221 214 214 223 222 211 203 211 219 237 271 279 229 259 277 281 296 291 285 287 289
182 181 176 176 177 179 172 170 170 175 178 184 189 190 188 189 186 174 173 186 207 247 246 222 225 230 230 220 199 166 173 208 266 270 232 237 270 290 288 283 286 290 290
180 175 175 182 181 182 177 174 175 177 176 180 182 192 190 190 188 180 184 187 207 229 209 201 227 278 254 226 215 197 193 207 242 260 237 221 257 302 295 279 289 299 295
Height
1540 1541 1543 1545 1547 1549 1551 1552 1554 1555 1557 1558 1560 1561 1562 1563 1564 1565 1566 1567 1568 1568 1569 1569 1569 1570 1570 1570 1570 1570 1570 1569 1569 1569 1569 1568 1568 1568 1567 1567 1566 1565 1565
1538 1540 1542 1544 1546 1548 1550 1551 1553 1554 1556 1557 1559 1560 1562 1563 1564 1565 1566 1567 1568 1568 1569 1569 1569 1569 1570 1570 1570 1570 1570 1570 1569 1569 1569 1568 1568 1567 1567 1566 1566 1565 1564
1537 1539 1540 1542 1545 1547 1549 1550 1552 1554 1555 1557 1558 1560 1562 1563 1564 1565 1566 1567 1568 1568 1569 1569 1569 1570 1570 1570 1570 1570 1570 1569 1569 1569 1568 1568 1567 1567 1566 1566 1565 1565 1564
1535 1537 1539 1541 1543 1545 1547 1549 1550 1552 1554 1556 1558 1560 1561 1562 1564 1565 1566 1567 1567 1568 1568 1569 1569 1569 1570 1570 1570 1570 1570 1569 1569 1568 1568 1567 1567 1566 1566 1565 1565 1564 1564
1532 1535 1537 1539 1541 1543 1545 1547 1549 1551 1553 1555 1557 1559 1561 1562 1563 1564 1565 1566 1567 1567 1567 1568 1568 1569 1569 1570 1570 1570 1569 1569 1568 1568 1567 1567 1566 1566 1565 1565 1564 1564 1563
1530 1533 1535 1537 1539 1541 1544 1546 1548 1550 1552 1554 1556 1558 1560 1561 1563 1564 1564 1565 1566 1566 1567 1567 1568 1568 1569 1569 1569 1569 1569 1568 1568 1567 1567 1566 1566 1565 1565 1564 1563 1563 1562
1527 1530 1532 1535 1537 1539 1541 1544 1546 1548 1550 1553 1555 1557 1559 1561 1562 1563 1564 1564 1565 1566 1566 1567 1567 1567 1568 1568 1568 1568 1568 1568 1567 1567 1566 1566 1565 1564 1564 1563 1562 1562 1561
1525 1527 1530 1532 1535 1537 1539 1541 1544 1546 1548 1551 1553 1554 1557 1560 1561 1562 1562 1563 1564 1565 1565 1566 1566 1567 1567 1567 1567 1567 1567 1567 1566 1566 1565 1565 1564 1563 1562 1562 1562 1561 1560
1522 1524 1527 1530 1532 1534 1536 1538 1541 1543 1545 1548 1551 1553 1554 1555 1558 1560 1560 1561 1562 1563 1564 1565 1565 1565 1566 1566 1566 1566 1566 1566 1565 1565 1564 1564 1563 1562 1561 1560 1560 1559 1558
1519 1521 1524 1527 1530 1532 1534 1536 1539 1541 1543 1545 1548 1550 1552 1552 1555 1557 1559 1559 1561 1562 1563 1563 1564 1564 1564 1565 1565 1565 1564 1564 1564 1563 1563 1562 1561 1561 1560 1559 1558 1557 1556
1516 1518 1521 1524 1526 1529 1531 1534 1536 1539 1541 1543 1545 1547 1548 1550 1552 1553 1554 1557 1558 1560 1561 1561 1562 1562 1563 1563 1563 1563 1563 1562 1562 1561 1561 1560 1559 1559 1558 1557 1556 1555 1554
1512 1514 1517 1520 1523 1526 1528 1531 1533 1536 1538 1541 1543 1544 1546 1547 1549 1550 1551 1553 1555 1557 1558 1559 1560 1560 1561 1561 1561 1561 1561 1560 1560 1559 1559 1558 1557 1557 1556 1555 1554 1553 1552
1508 1511 1513 1516 1519 1523 1525 1528 1531 1533 1535 1538 1540 1542 1544 1546 1547 1548 1550 1550 1552 1554 1555 1556 1557 1558 1558 1558 1558 1558 1558 1558 1558 1557 1557 1556 1555 1554 1553 1553 1552 1551 1550
1505 1508 1511 1513 1516 1519 1522 1525 1528 1530 1532 1535 1537 1539 1541 1543 1545 1546 1547 1548 1549 1551 1552 1553 1554 1555 1555 1556 1556 1556 1555 1555 1555 1554 1554 1553 1552 1551 1550 1550 1549 1548 1547
1502 1505 1507 1509 1512 1515 1519 1522 1524 1527 1529 1532 1534 1536 1539 1540 1542 1543 1545 1547 1548 1547 1548 1550 1551 1552 1552 1553 1553 1553 1553 1552 1552 1551 1551 1550 1549 1548 1548 1547 1546 1545 1544
1498 1500 1503 1506 1508 1512 1515 1518 1520 1523 1526 1528 1531 1533 1535 1537 1539 1540 1542 1543 1545 1546 1545 1546 1548 1548 1549 1550 1550 1550 1550 1550 1549 1548 1548 1547 1546 1545 1544 1544 1542 1541 1541
1495 1497 1499 1502 1505 1508 1511 1513 1516 1519 1522 1524 1527 1529 1532 1534 1536 1537 1538 1540 1541 1542 1543 1543 1545 1545 1546 1546 1547 1547 1547 1546 1546 1545 1545 1544 1543 1542 1541 1540 1539 1538 1537
1491 1494 1496 1498 1501 1504 1507 1509 1512 1515 1518 1520 1523 1526 1528 1530 1532 1534 1535 1536 1538 1539 1540 1540 1541 1542 1542 1543 1543 1543 1543 1543 1542 1542 1541 1541 1540 1539 1538 1537 1536 1535 1533
1487 1490 1492 1494 1497 1500 1503 1506 1508 1511 1514 1517 1519 1522 1524 1526 1528 1530 1531 1533 1534 1535 1536 1537 1537 1538 1539 1539 1539 1539 1539 1539 1539 1538 1537 1537 1536 1535 1534 1533 1532 1531 1530
1483 1486 1488 1491 1494 1496 1499 1502 1505 1507 1510 1513 1515 1517 1520 1522 1524 1526 1527 1529 1530 1531 1532 1533 1534 1534 1535 1535 1535 1535 1535 1535 1534 1534 1533 1533 1532 1531 1530 1529 1528 1527 1525
1479 1482 1485 1488 1490 1492 1495 1498 1501 1503 1506 1508 1511 1513 1516 1518 1520 1522 1523 1525 1526 1527 1528 1529 1529 1530 1530 1531 1531 1531 1531 1530 1530 1530 1529 1528 1528 1527 1526 1525 1523 1522 1521
1476 1478 1481 1483 1486 1488 1491 1494 1497 1500 1502 1504 1507 1509 1512 1514 1516 1518 1519 1521 1522 1523 1524 1524 1525 1526 1526 1527 1527 1527 1527 1526 1525 1526 1525 1524 1523 1522 1521 1520 1519 1518 1517
1472 1474 1477 1480 1482 1485 1487 1490 1493 1496 1499 1501 1503 1505 1508 1510 1512 1513 1514 1516 1517 1518 1520 1521 1521 1521 1522 1523 1523 1523 1523 1522 1522 1521 1521 1519 1519 1517 1517 1516 1514 1513 1512
1469 1471 1474 1476 1478 1481 1484 1487 1490 1493 1495 1497 1500 1502 1504 1506 1508 1509 1510 1511 1512 1513 1515 1516 1517 1517 1518 1519 1519 1519 1519 1518 1518 1517 1516 1515 1513 1513 1512 1511 1510 1508 1507
1465 1467 1470 1472 1475 1477 1480 1483 1487 1489 1491 1493 1496 1498 1500 1502 1503 1505 1506 1506 1507 1509 1510 1511 1512 1513 1513 1514 1514 1515 1514 1513 1512 1512 1512 1510 1508 1507 1506 1506 1505 1504 1502
1461 1464 1467 1469 1471 1474 1477 1480 1483 1485 1487 1489 1492 1494 1496 1498 1499 1500 1501 1502 1503 1504 1505 1506 1507 1508 1508 1509 1509 1509 1509 1509 1508 1507 1506 1506 1504 1503 1500 1499 1499 1499 1497